#timestamp,LO_Frequency,Hit,StdDev 
1506168015.9,286046999.2,N
1506168035.7,286046998.9,N
1506168055.6,286046998.3,N
1506168075.4,286046999.3,N
1506168095.2,286046998.9,N
1506168115.1,286046997.8,N
1506168116.0,286046997.8,N
1506168135.8,286046997.0,Y
1506168155.7,286046998.8,P
1506168175.5,286046996.9,P
1506168195.3,286046996.9,P
1506168215.2,286046997.5,N
1506168235.0,286046997.1,Y
1506168235.9,286046997.1,P
1506168255.8,286047000.6,N
1506168275.6,286047000.6,N
1506168295.4,286047000.8,N
1506168315.3,286046998.2,N
1506168335.1,286046998.2,N
1506168355.9,286046998.7,N
1506168375.7,286046998.1,N
1506168395.5,286046996.5,N
1506168415.4,286046998.6,N
1506168435.2,286046999.6,N
1506168455.1,286046999.3,N
1506168456.0,286046999.3,N
1506168475.8,286046998.7,N
1506168495.6,286046999.1,N
1506168515.5,286046999.6,N
1506168535.3,286046996.5,Y
1506168555.2,286046998.2,P
1506168575.9,286046998.9,P
1506168595.7,286046998.9,P
1506168615.6,286046999.6,N
1506168635.4,286046999.1,N
1506168655.2,286046999.2,N
1506168675.1,286046997.1,Y
1506168676.0,286046997.1,P
1506168695.8,286046999.6,N
1506168715.7,286046998.9,N
1506168735.5,286047002.7,N
1506168755.3,286047000.7,N
1506168775.2,286047000.9,N
1506168795.0,286046998.3,N
1506168795.9,286046998.3,N
1506168815.8,286047001.0,N
1506168835.6,286047002.2,N
1506168855.4,286047000.0,N
1506168875.3,286047002.8,N
1506168895.1,286047000.3,N
1506168915.9,286047000.0,N
1506168935.7,286046999.8,N
1506168955.5,286046999.9,N
1506168975.4,286047000.1,N
1506168995.2,286047000.0,N
1506169015.1,286046998.1,N
1506169016.0,286046998.1,N
1506169035.8,286047001.2,N
1506169055.6,286046999.8,N
1506169075.5,286046998.2,N
1506169095.3,286046998.2,N
1506169115.2,286046998.7,N
1506169135.9,286046999.3,N
1506169155.7,286046998.5,N
1506169175.6,286046998.4,N
1506169195.4,286047000.9,N
1506169215.2,286046998.2,N
1506169235.1,286046998.6,N
1506169236.0,286046998.6,N
1506169255.8,286046999.4,N
1506169275.7,286046999.3,N
1506169295.5,286046999.2,N
1506169315.3,286046997.0,N
1506169335.2,286046996.7,N
1506169355.0,286046997.1,N
1506169355.9,286046997.1,N
1506169375.8,286046997.8,N
1506169395.6,286046996.6,N
1506169415.4,286046998.8,N
1506169435.3,286046999.1,N
1506169455.1,286046996.5,Y
1506169475.9,286047000.4,P
1506169495.7,286047000.7,N
1506169515.5,286047000.8,N
1506169535.4,286047001.0,N
1506169555.2,286046998.3,N
1506169575.0,286046998.9,N
1506169576.0,286046998.9,N
1506169595.8,286046998.1,N
1506169615.6,286046998.1,N
1506169635.5,286046998.6,N
1506169655.3,286046997.0,N
1506169675.1,286046999.6,N
1506169695.9,286046998.9,N
1506169715.7,286046998.1,N
1506169735.6,286046998.7,N
1506169755.4,286047001.2,N
1506169775.2,286046998.3,N
1506169795.1,286046998.5,N
1506169796.0,286046998.5,N
1506169815.8,286046999.2,N
1506169835.7,286046997.0,N
1506169855.5,286046996.5,Y
1506169875.3,286046999.1,P
1506169895.2,286047001.2,P
1506169915.0,286046999.9,N
1506169915.9,286046999.9,N
1506169935.8,286047000.4,N
1506169955.6,286047000.5,N
1506169975.4,286047000.6,N
1506169995.3,286047000.9,N
1506170015.1,286047000.4,N
1506170035.8,286046999.1,N
1506170055.7,286046998.1,N
1506170075.5,286046998.6,N
1506170095.4,286046998.5,N
1506170115.2,286047000.6,N
1506170135.0,286046999.9,N
1506170135.9,286046999.9,N
1506170155.8,286046999.9,N
1506170175.6,286047000.4,N
1506170195.5,286046998.2,N
1506170215.3,286046996.7,Y
1506170235.1,286046998.7,P
1506170255.9,286046999.8,N
1506170275.7,286047000.7,N
1506170295.6,286046998.1,N
1506170315.4,286047002.3,N
1506170335.2,286047002.8,N
1506170355.1,286047000.0,N
1506170356.0,286047000.0,N
1506170375.8,286046999.9,N
1506170395.7,286047000.2,N
1506170415.5,286047002.5,N
1506170435.3,286047002.2,N
1506170455.2,286047001.4,N
1506170475.0,286047002.8,N
1506170475.9,286047002.8,N
1506170495.8,286047001.8,N
1506170515.6,286047002.7,N
1506170535.4,286047001.4,N
1506170555.3,286047003.5,N
1506170575.1,286047003.7,N
1506170595.9,286047003.5,N
1506170615.7,286047004.4,N
1506170635.5,286047003.3,N
1506170655.4,286047001.6,N
1506170675.2,286047003.5,N
1506170695.1,286047003.9,N
1506170696.0,286047003.9,N
1506170715.8,286047001.8,N
1506170735.6,286047004.0,N
1506170755.5,286047003.5,N
1506170775.3,286047006.0,Y
1506170795.2,286047002.0,P
1506170815.9,286047002.3,P
1506170835.7,286047001.9,P
1506170855.6,286047002.4,Y
1506170875.4,286047000.6,P
1506170895.3,286047000.7,N
1506170915.1,286047001.2,N
1506170935.8,286047000.7,N
1506170955.7,286046998.1,Y
1506170975.5,286046998.9,P
1506170995.4,286046998.4,N
1506171015.2,286047000.8,N
1506171035.0,286046998.4,N
1506171035.9,286046998.4,N
1506171055.8,286046999.4,N
1506171075.6,286046999.4,N
1506171095.5,286046996.9,Y
1506171115.3,286047001.2,P
1506171135.1,286047000.3,N
1506171155.9,286046999.1,N
1506171175.7,286046999.1,N
1506171195.6,286046998.4,N
1506171215.4,286047000.8,N
1506171235.2,286047000.1,N
1506171255.1,286047000.7,N
1506171256.0,286047000.7,N
1506171275.8,286047000.4,N
1506171295.7,286046998.3,N
1506171315.5,286046999.2,N
1506171335.3,286047001.0,N
1506171355.2,286046998.1,N
1506171375.0,286047001.0,N
1506171375.9,286047001.0,N
1506171395.8,286047000.4,N
1506171415.6,286047000.3,N
1506171435.4,286047000.0,N
1506171455.3,286047000.7,N
1506171475.1,286047001.1,N
1506171495.9,286047001.0,N
1506171515.7,286046998.6,N
1506171535.5,286047000.5,N
1506171555.4,286047000.9,N
1506171575.2,286047001.0,N
1506171595.0,286047000.2,N
1506171595.9,286047000.2,N
